AirNav   Everest Fuels
 
 877 users online  

6AZ8 Flying Diamond Airport
Tucson, Arizona, USA

GOING TO TUCSON?


FAA INFORMATION EFFECTIVE 28 MARCH 2019

Location

FAA Identifier: 6AZ8
Lat/Long: 31-56-28.0000N / 111-07-13.0000W
31-56.466667N / 111-07.216667W
31.9411111 / -111.1202778
(estimated)
Elevation: 3800 ft. / 1158 m (estimated)
Variation: 12E (1995)
From city: 15 miles SW of TUCSON, AZ
Time zone: UTC -7 (year round; does not observe DST)
Zip code: 85629

Airport Operations

Airport use: Private use. Permission required prior to landing
Activation date: 03/2000
Control tower: no
ARTCC: ALBUQUERQUE CENTER
FSS: PRESCOTT FLIGHT SERVICE STATION
Attendance: UNATNDD
Wind indicator: yes
Segmented circle: no

Airport Communications

WX AWOS-3 at RYN (12 nm N): 133.35 (520-578-0269)
WX ASOS at TUS (14 nm NE): PHONE 520-295-5727

Nearby radio navigation aids

VOR radial/distance  VOR name  Freq  Var
TUSr217/14.0TUCSON VORTAC116.0012E
OLSr324/34.5NOGALES VOR/DME108.2012E

 
NDB name  Hdg/Dist  Freq  Var  ID
RYAN158/12.033812ERYN .-. -.-- -.
ROBLES111/14.622012ERBJ .-. -... .---
MARANA158/28.724512EAVQ .- ...- --.-

Airport Services

Runway Information

Runway 7/25

Dimensions: 2650 x 35 ft. / 808 x 11 m
Surface: asphalt
RUNWAY 7  RUNWAY 25
Traffic pattern: leftleft
Obstructions: none100 ft. pline, 1000 ft. from runway

Airport Ownership and Management from official FAA records

Ownership: Privately-owned
Owner: FLYING DIAMOND AIRPARK LLC
P.O. BOX 1056
TUCSON, AZ 85629
Phone 520-399-3877
Manager: LOU COOK
HC 70 BOX 3906
SAHUARITA, AZ 85629
Phone 520-399-3877
CELL 520-403-9865

Airport Operational Statistics

Aircraft based on the field: 11
Single engine airplanes: 10
Helicopters: 1
    

Additional Remarks

FOR CD CTC TUCSON APCH AT 520-829-6121.

Instrument Procedures

There are no published instrument procedures at 6AZ8.

Some nearby airports with instrument procedures:

KRYN - Ryan Field Airport (12 nm N)
KTUS - Tucson International Airport (14 nm NE)
KDMA - Davis Monthan Air Force Base (18 nm NE)
KAVQ - Marana Regional Airport (29 nm N)
KOLS - Nogales International Airport (34 nm SE)
 
Loc | Ops | Rwys | IFR | FBO | Links
Com | Nav | Svcs | Stats | Notes
Area around 6AZ8 (Flying Diamond Airport)
 
Road maps at: MapQuest Bing Google
 
Aerial photo
WARNING: Photo may not be current or correct
Aerial photo of 6AZ8 (Flying Diamond Airport)
Do you have a better or more recent aerial photo of Flying Diamond Airport that you would like to share? If so, please send us your photo.

 
Sectional chart

 
Airport distance calculator
Flying to Flying Diamond Airport? Find the distance to fly.

From to 6AZ8

Sunrise and sunset
Times for 20-Apr-2019
 Local
(UTC-7)
 Zulu
(UTC)
Morning civil twilight05:2612:26
Sunrise05:5112:51
Sunset18:5601:56
Evening civil twilight19:2102:21

Current date and time
Zulu (UTC)  20-Apr-2019 21:19:28
Local (UTC-7)  20-Apr-2019 14:19:28
 
METAR
KRYN 
12nm N 
202045Z 22018G25KT 10SM CLR 32/M06 A2989
KTUS 
14nm NE 
202053Z 22014G35KT 10SM CLR 32/M09 A2989 RMK AO2 PK WND 24035/2048 SLP077 T03171089 56012
KDMA 
19nm NE 
202104Z AUTO 25018G23KT 10SM CLR 32/M08 A2987 RMK AO2 WSHFT 2051 SLP075 $
TAF
KTUS 
14nm NE 
201737Z 2018/2118 19010G20KT P6SM SKC FM201900 24020G30KT P6SM SKC FM210400 20006KT P6SM SKC FM211700 22010G20KT P6SM SKC
KDMA 
19nm NE 
201404Z 2014/2120 13009KT 9999 SCT150 QNH2989INS BECMG 2015/2016 24015G25KT 9999 SCT150 510009 QNH2982INS TEMPO 2018/2024 24020G30KT 520009 BECMG 2102/2103 24012KT 9999 SKC QNH2991INS BECMG 2108/2109 15009KT 9999 SKC QNH2996INS BECMG 2114/2115 25015G25KT 9999 SKC 520009 QNH3000INS BECMG 2117/2118 23012G20KT 9999 SKC 510009 QNH2998INS TX32/2023Z TN15/2014Z
NOTAMs
Click for the latest NOTAMs
NOTAMs are issued by the DoD/FAA and will open in a separate window not controlled by AirNav.

 

 
 

Would you like to see your business listed on this page?

 If your business provides an interesting product or service to pilots, flight crews, aircraft, or users of the Flying Diamond Airport, you should consider listing it here.  To start the listing process, click on the button below
 
Add a business
 

Other Pages about Flying Diamond Airport

www.fdairpark.com
 
Update a link
 
Copyright © AirNav, LLC. All rights reserved. Privacy Policy  Contact